Weather History for Kaneohe MCBH, HI

Change the Weather History Date:

Tuesday, January 1, 2013

  Actual Average Record
Temperature  
Mean Temperature 73 °F -  
Max Temperature 75 °F 76 °F 82 °F (2003)
Min Temperature 71 °F 66 °F 35 °F (2005)
Cooling Degree Days 8    
Growing Degree Days 23 (Base 50)    
Moisture  
Dew Point 69 °F    
Average Humidity 85    
Maximum Humidity 95    
Minimum Humidity 73    
Precipitation  
Precipitation 0.03 in - - ()
Sea Level Pressure  
Sea Level Pressure 30.10 in    
Wind  
Wind Speed 10 mph (NNE)    
Max Wind Speed 21 mph    
Max Gust Speed 28 mph    
Visibility 8 miles    
Events Rain    
Averages and records for this station are not official NWS values.
T = Trace of Precipitation, MM = Missing Value Source: NWS Daily Summary

Daily Weather History Graph

Daily Weather History Graph

Search for Another Location

Airport:

Trip Planner

Search our weather history database for the weather conditions in past years. The results will help you decide how hot, cold, wet, or windy it might be!

Date:

Astronomy

Jan. 01, 2013 Rise Set
Actual Time 7:09 AM HST 6:00 PM HST
Civil Twilight 6:44 AM HST 6:24 PM HST
Nautical Twilight 6:17 AM HST 6:52 PM HST
Astronomical Twilight 5:50 AM HST 7:19 PM HST
Moon 10:06 PM HST (1/1) 9:59 AM HST (1/1)
Length of Visible Light 11h 39m
Length of Day
10h 51m
Waning Gibbous, 82% of the Moon is Illuminated
Jan 1
Waning Gibbous
Jan 4
Last Quarter
Jan 11
New
Jan 18
First Quarter
Jan 26
Full

Hourly Weather History & Observations

Time (HST) Temp. Dew Point Humidity Pressure Visibility Wind Dir Wind Speed Gust Speed Precip Events Conditions
12:07 AM 73.4 °F 69.8 °F 88% 30.10 in 6.2 mi SSW 3.5 mph - N/A   Scattered Clouds
12:57 AM 73.4 °F 70.0 °F 89% 30.08 in 10.0 mi Calm Calm - N/A   Scattered Clouds
1:07 AM - - N/A% 30.09 in 6.2 mi Calm Calm - N/A   Mostly Cloudy
1:49 AM - - N/A% 30.08 in 6.2 mi Calm Calm - N/A   Mostly Cloudy
1:57 AM - - N/A% 30.07 in 10.0 mi Calm Calm - N/A   Scattered Clouds
2:57 AM - - N/A% 30.07 in 10.0 mi NNE 8.1 mph - N/A   Mostly Cloudy
3:12 AM - - N/A% 30.08 in 6.2 mi NNE 8.1 mph - N/A   Scattered Clouds
3:36 AM - - N/A% 30.08 in 6.2 mi North 10.4 mph - N/A   Mostly Cloudy
3:57 AM - - N/A% 30.07 in 10.0 mi NNE 8.1 mph - N/A   Partly Cloudy
4:32 AM - - N/A% 30.09 in 6.2 mi North 10.4 mph - N/A   Mostly Cloudy
4:48 AM - - N/A% 30.09 in 6.2 mi North 11.5 mph - N/A   Partly Cloudy
4:57 AM - - N/A% 30.08 in 10.0 mi North 9.2 mph - N/A   Scattered Clouds
5:57 AM - - N/A% 30.08 in 10.0 mi North 8.1 mph - N/A   Scattered Clouds
6:19 AM - - N/A% 30.09 in 6.2 mi North 11.5 mph - 0.00 in Rain Light Rain
6:34 AM 73.4 °F 71.6 °F 94% 30.10 in 6.2 mi NNE 10.4 mph - 0.00 in Rain Light Rain
6:57 AM 73.4 °F 71.1 °F 92% 30.09 in 10.0 mi NNE 13.8 mph - 0.00 in   Overcast
7:12 AM 73.4 °F 69.8 °F 88% 30.11 in 10.0 mi NNE 15.0 mph - N/A   Overcast
7:33 AM 73.4 °F 69.8 °F 88% 30.11 in 6.2 mi NNE 12.7 mph - 0.00 in Rain Light Rain
7:57 AM 73.4 °F 70.0 °F 89% 30.10 in 10.0 mi NNE 11.5 mph - 0.00 in   Overcast
8:09 AM 73.4 °F 69.8 °F 88% 30.12 in 6.2 mi NNE 12.7 mph - N/A   Overcast
8:57 AM 73.4 °F 70.0 °F 89% 30.13 in 10.0 mi NNE 16.1 mph 25.3 mph N/A   Overcast
9:46 AM 73.4 °F 71.6 °F 94% 30.15 in 6.2 mi NNE 17.3 mph 24.2 mph 0.01 in   Overcast
9:54 AM 73.4 °F 71.6 °F 94% 30.14 in 6.2 mi NNE 20.7 mph 26.5 mph 0.01 in   Overcast
9:57 AM 73.4 °F 72.0 °F 95% 30.13 in 10.0 mi NNE 19.6 mph 26.5 mph 0.01 in   Overcast
10:04 AM 73.4 °F 71.6 °F 94% 30.14 in 6.2 mi NNE 18.4 mph 25.3 mph N/A   Overcast
10:10 AM 73.4 °F 71.6 °F 94% 30.14 in 6.2 mi NE 18.4 mph 25.3 mph 0.00 in Rain Light Rain
10:18 AM 73.4 °F 71.6 °F 94% 30.14 in 6.2 mi NNE 16.1 mph 24.2 mph 0.00 in   Overcast
10:22 AM 73.4 °F 71.6 °F 94% 30.14 in 6.2 mi NE 16.1 mph 24.2 mph 0.00 in   Overcast
10:44 AM 73.4 °F 71.6 °F 94% 30.14 in 6.2 mi NE 16.1 mph 25.3 mph 0.00 in   Overcast
10:57 AM 73.4 °F 71.1 °F 92% 30.12 in 10.0 mi NNE 16.1 mph 25.3 mph 0.01 in Rain Light Rain
11:18 AM 73.4 °F 69.8 °F 88% 30.12 in 6.2 mi NE 19.6 mph 27.6 mph 0.00 in   Overcast
11:28 AM 73.4 °F 69.8 °F 88% 30.12 in 6.2 mi NE 15.0 mph 25.3 mph 0.00 in   Overcast
11:57 AM 75.2 °F 70.0 °F 84% 30.09 in 10.0 mi NNE 19.6 mph 26.5 mph 0.00 in   Overcast
12:57 PM 75.2 °F 69.1 °F 81% 30.06 in 10.0 mi NE 13.8 mph 21.9 mph N/A   Overcast
1:57 PM 73.4 °F 69.1 °F 86% 30.06 in 10.0 mi NNE 16.1 mph 24.2 mph 0.00 in Rain Light Rain
2:57 PM 73.4 °F 68.0 °F 83% 30.06 in 10.0 mi NE 16.1 mph 24.2 mph 0.00 in Rain Light Rain
3:57 PM 73.4 °F 66.9 °F 80% 30.06 in 10.0 mi NNE 16.1 mph 23.0 mph 0.00 in   Overcast
4:57 PM 73.4 °F 66.9 °F 80% 30.06 in 10.0 mi NNE 15.0 mph 25.3 mph N/A   Overcast
5:08 PM 73.4 °F 64.4 °F 73% 30.09 in 6.2 mi NNE 17.3 mph 26.5 mph N/A   Overcast
5:23 PM 73.4 °F 64.4 °F 73% 30.09 in 6.2 mi NNE 16.1 mph 24.2 mph N/A   Overcast
5:48 PM 73.4 °F 64.4 °F 73% 30.09 in 6.2 mi NNE 19.6 mph 26.5 mph N/A   Overcast
5:57 PM 73.4 °F 64.9 °F 75% 30.06 in 10.0 mi NNE 15.0 mph 25.3 mph N/A   Overcast
6:10 PM 73.4 °F 66.2 °F 78% 30.10 in 6.2 mi NNE 20.7 mph 25.3 mph N/A   Overcast
6:57 PM 73.4 °F 66.0 °F 78% 30.07 in 10.0 mi NNE 18.4 mph 26.5 mph 0.00 in   Overcast
7:18 PM 73.4 °F 66.2 °F 78% 30.11 in 6.2 mi NNE 16.1 mph 26.5 mph N/A   Overcast
7:28 PM 73.4 °F 66.2 °F 78% 30.11 in 6.2 mi NNE 18.4 mph 25.3 mph N/A   Overcast
7:52 PM 73.4 °F 66.2 °F 78% 30.11 in 6.2 mi NNE 16.1 mph 26.5 mph N/A   Overcast
7:57 PM 73.4 °F 66.9 °F 80% 30.08 in 10.0 mi NE 15.0 mph 26.5 mph N/A   Overcast
8:36 PM 73.4 °F 69.8 °F 88% 30.12 in 6.2 mi NNE 15.0 mph 23.0 mph 0.00 in   Overcast
8:48 PM 73.4 °F 69.8 °F 88% 30.12 in 6.2 mi NE 15.0 mph 24.2 mph 0.00 in Rain Light Rain
8:57 PM 73.4 °F 70.0 °F 89% 30.09 in 10.0 mi ENE 11.5 mph 23.0 mph 0.00 in   Overcast
9:16 PM 71.6 °F 66.2 °F 83% 30.13 in 6.2 mi NE 16.1 mph 23.0 mph N/A   Overcast
9:57 PM 73.4 °F 66.9 °F 80% 30.11 in 10.0 mi NE 15.0 mph 25.3 mph 0.01 in Rain Light Rain
10:57 PM 73.4 °F 66.0 °F 78% 30.11 in 10.0 mi NE 12.7 mph 24.2 mph 0.00 in   Overcast
11:57 PM 73.4 °F 64.9 °F 75% 30.11 in 10.0 mi NE 11.5 mph 20.7 mph 0.00 in   Overcast